GW1062 Weather Reports


Display with metric or nautical units.
time (UTC)temp
F
wind
direction
speed
MPH
gust
MPH
rain 1hr
in
rain 24hr
in
rain mn
in
humidity
%
barometer
mb
20260503234526 72 6 11.0 20.0 0.00 0.00 0.00 26 968.3
20260503233015 72 5 9.0 16.0 0.00 0.00 0.00 26 968.4
20260503231516 72 5 8.0 17.0 0.00 0.00 0.00 28 968.3
20260503230017 73 5 6.0 15.0 0.00 0.00 0.00 27 968.3
20260503224515 73 4 14.0 21.0 0.00 0.00 0.00 26 968.3
20260503223012 73 6 10.0 17.0 0.00 0.00 0.00 27 968.2
20260503221511 73 6 8.0 20.0 0.00 0.00 0.00 27 968.2
20260503220028 73 5 11.0 19.0 0.00 0.00 0.00 26 968.2
20260503214509 73 5 10.0 16.0 0.00 0.00 0.00 26 968.4
20260503213011 74 5 8.0 15.0 0.00 0.00 0.00 27 968.4
20260503211506 73 6 9.0 19.0 0.00 0.00 0.00 27 968.1
20260503210005 73 6 8.0 16.0 0.00 0.00 0.00 28 968.3
20260503204504 74 5 6.0 13.0 0.00 0.00 0.00 26 968.5
20260503203105 73 6 9.0 20.0 0.00 0.00 0.00 27 968.5
20260503201559 73 6 4.0 14.0 0.00 0.00 0.00 31 968.4
20260503194556 72 6 6.0 22.0 0.00 0.00 0.00 33 968.6
20260503193101 72 6 9.0 18.0 0.00 0.00 0.00 31 968.5
20260503191552 72 6 10.0 19.0 0.00 0.00 0.00 32 968.6
20260503190057 71 6 13.0 27.0 0.00 0.00 0.00 31 968.6
20260503184603 71 5 9.0 17.0 0.00 0.00 0.00 32 968.8
20260503183057 70 6 12.0 19.0 0.00 0.00 0.00 34 968.6
20260503181545 70 6 10.0 22.0 0.00 0.00 0.00 35 968.7
20260503180047 71 6 10.0 17.0 0.00 0.00 0.00 37 968.8
20260503174543 70 5 9.0 20.0 0.00 0.00 0.00 36 968.8
20260503173040 69 6 15.0 26.0 0.00 0.00 0.00 35 968.8
20260503171537 69 6 9.0 21.0 0.00 0.00 0.00 38 968.9
20260503081533 52 360 15.0 21.0 0.00 0.00 0.00 50 972.0
20260503071520 52 360 7.0 18.0 0.00 0.00 0.00 49 973.1
20260503054512 52 360 7.0 16.0 0.00 0.00 0.00 49 974.1
20260503053102 52 360 8.0 12.0 0.00 0.00 0.00 50 974.3
20260503051601 51 360 9.0 13.0 0.00 0.00 0.00 51 974.2
20260503050057 51 360 9.0 13.0 0.00 0.00 0.00 52 974.4
20260503044604 51 360 9.0 13.0 0.00 0.00 0.00 51 974.6
20260503043059 51 360 10.0 14.0 0.00 0.00 0.00 51 974.6
20260503041553 51 360 9.0 12.0 0.00 0.00 0.00 51 974.9
20260503040050 52 360 7.0 12.0 0.00 0.00 0.00 50 975.2
20260503034550 52 360 8.0 13.0 0.00 0.00 0.00 49 975.3
20260503033100 52 360 6.0 9.0 0.00 0.00 0.00 50 975.5
20260503031554 53 360 6.0 11.0 0.00 0.00 0.00 48 975.7
20260503030044 53 360 5.0 9.0 0.00 0.00 0.00 47 975.9
20260503024600 53 360 4.0 8.0 0.00 0.00 0.00 47 975.9
20260503023044 53 360 2.0 8.0 0.00 0.00 0.00 46 975.8
20260503021544 53 360 2.0 8.0 0.00 0.00 0.00 47 975.9
20260503020047 53 360 3.0 9.0 0.00 0.00 0.00 46 975.8
20260503014544 54 360 3.0 8.0 0.00 0.00 0.00 44 975.8
20260503013041 55 360 4.0 8.0 0.00 0.00 0.00 43 975.8
20260503011544 57 360 0.0 3.0 0.00 0.00 0.00 40 975.8
20260503010040 58 360 1.0 5.0 0.00 0.00 0.00 37 975.9
20260503004543 60 6 2.0 7.0 0.00 0.00 0.00 34 976.0
20260503003039 61 4 3.0 10.0 0.00 0.00 0.00 34 976.0
20260503001540 62 4 9.0 13.0 0.00 0.00 0.00 32 976.0
20260503000013 62 4 7.0 12.0 0.00 0.00 0.00 31 976.1